DateTimeUTC,F1_A11,F1_S11,BsB_S11,BsG_S11,BsR_S11,BbsB_S11,BbsG_S11,BbsR_S11,BaB_A11,BaG_A11,BaR_A11,Tu_S11,T_S11,Uu_S11,U_S11,P_S11,T1_A11
2021-02-14T16:00:00Z,00000200,21000000,,,,,,,0000.20,0000.14,-000.46,17.4,23.9,00.9,00.6,0649.2,31.1
2021-02-14T16:01:00Z,00000200,21000000,,,,,,,-000.46,-000.53,-000.18,17.3,23.9,00.9,00.6,0649.2,31.0
2021-02-14T16:02:00Z,00000200,21000000,,,,,,,-000.00,0000.33,0000.58,17.3,23.9,00.9,00.6,0649.2,31.0
2021-02-14T16:03:00Z,00000200,61000000,,,,,,,0000.31,0000.15,-000.22,17.3,23.9,00.9,00.6,0649.2,31.0
2021-02-14T16:04:00Z,00000200,41000000,-000.37,0000.12,0000.29,-000.02,0000.07,-000.04,0000.00,0000.28,-000.05,17.4,23.7,00.9,00.6,0650.1,31.0
2021-02-14T16:05:00Z,00000200,01000000,0000.51,0000.45,0000.12,0000.31,0000.01,0000.09,0000.14,-000.04,0000.16,17.4,23.6,01.0,00.6,0650.2,31.0
2021-02-14T16:06:00Z,00000200,01000000,0000.07,0000.06,0000.23,-000.08,-000.00,0000.43,0000.09,0000.23,0000.14,17.4,23.6,01.0,00.7,0650.2,31.0
2021-02-14T16:07:00Z,00000200,01000000,-000.50,0000.16,0000.12,-000.20,-000.02,0000.08,-000.03,-000.15,0000.07,17.4,23.6,00.9,00.6,0650.1,31.0
2021-02-14T16:08:00Z,00000200,01000000,0001.04,0000.13,0000.18,-000.27,0000.04,-000.08,0000.17,0000.02,0000.18,17.4,23.6,01.0,00.7,0650.1,31.1
2021-02-14T16:09:00Z,00000200,01000000,0000.05,0000.06,-000.01,0000.01,0000.09,0000.16,0000.22,0000.08,-000.19,17.4,23.6,01.0,00.6,0650.2,31.0
2021-02-14T16:10:00Z,00000200,01000000,0000.13,0000.18,0000.21,-000.13,0000.31,0000.08,-000.13,0000.18,0000.36,17.4,23.5,00.9,00.6,0650.1,31.1
2021-02-14T16:11:00Z,00000200,01000000,-000.47,0000.46,0000.03,-000.14,0000.31,-000.15,0000.19,0000.16,-000.21,17.3,23.5,00.9,00.6,0650.0,31.0
2021-02-14T16:12:00Z,00000200,01000000,-001.13,0000.11,0000.16,-000.03,0000.12,-000.14,0000.27,-000.07,0000.34,17.3,23.5,01.0,00.7,0650.0,31.0
2021-02-14T16:13:00Z,00000200,01000000,-000.02,0000.26,0000.20,-000.29,0000.04,0000.09,0000.14,0000.32,-000.26,17.3,23.5,01.0,00.7,0650.0,31.0
2021-02-14T16:14:00Z,00000200,01000000,0000.19,0000.42,0000.36,-000.04,-000.17,-000.14,-000.07,0000.00,0000.11,17.3,23.5,00.9,00.6,0650.0,31.0
2021-02-14T16:15:00Z,00000200,01000000,-000.39,0000.12,0000.10,-000.05,0000.16,-000.11,-000.04,-000.03,0000.05,17.3,23.5,00.9,00.6,0650.0,31.0
2021-02-14T16:16:00Z,00000200,01000000,0000.23,0000.32,-000.02,-000.21,0000.07,-000.26,0000.21,0000.33,0000.27,17.3,23.4,00.9,00.6,0650.0,31.0
2021-02-14T16:17:00Z,00000200,01000000,0000.19,0000.25,0000.14,0000.43,0000.05,-000.04,0000.02,-000.19,-000.04,17.3,23.4,00.9,00.6,0650.1,31.0
2021-02-14T16:18:00Z,00000200,01000000,-000.11,0000.48,0000.21,0000.34,-000.23,-000.00,-000.28,0000.45,0000.07,17.3,23.4,00.9,00.6,0650.0,31.0
2021-02-14T16:19:00Z,00000200,01000000,-000.41,0000.12,-000.06,-000.57,-000.21,0000.37,0000.47,-000.27,0000.29,17.3,23.4,00.9,00.6,0649.9,31.0
2021-02-14T16:20:00Z,00000200,01000000,0000.15,0000.14,0000.15,0000.27,0000.05,-000.03,-000.05,-000.16,-000.40,17.2,23.4,00.9,00.6,0649.9,31.0
2021-02-14T16:21:00Z,00000200,01000000,0000.53,0000.33,0000.14,-000.58,-000.08,0000.03,0000.46,0000.08,0000.06,17.2,23.4,01.0,00.7,0649.9,31.0
2021-02-14T16:22:00Z,00000200,01000000,0000.04,0000.10,0000.04,-000.19,-000.02,0000.03,-000.26,0000.55,0000.30,17.2,23.3,01.0,00.7,0649.9,31.0
2021-02-14T16:23:00Z,00000200,01000000,0000.27,0000.56,0000.21,-000.21,-000.12,0000.15,0000.16,0000.08,0000.07,17.2,23.3,00.9,00.6,0649.9,31.0
2021-02-14T16:24:00Z,00000200,01000000,-000.18,0000.27,-000.01,-000.59,0000.01,0000.16,-000.19,-000.33,0000.14,17.2,23.3,00.9,00.6,0649.9,31.0
2021-02-14T16:25:00Z,00000200,01000000,-000.16,0000.28,-000.11,-000.33,0000.16,-000.09,0000.08,0000.30,-000.48,17.2,23.3,00.9,00.6,0649.9,31.0
2021-02-14T16:26:00Z,00000200,01000000,-000.26,0000.10,-000.03,0000.05,0000.21,0000.33,0000.21,-000.15,0000.19,17.2,23.3,00.8,00.6,0649.9,31.0
2021-02-14T16:27:00Z,00000200,01000000,0000.15,0000.27,0000.06,-000.26,-000.01,-000.10,-000.28,-000.08,0000.04,17.2,23.3,00.9,00.6,0649.9,31.0
2021-02-14T16:28:00Z,00000200,01000000,0000.02,-000.13,-000.02,0000.04,0000.10,-000.08,0000.26,0000.24,-000.01,17.1,23.3,00.9,00.6,0649.9,31.0
2021-02-14T16:29:00Z,00000200,01000000,0000.46,0000.04,0000.32,-000.55,0000.07,0000.22,0000.01,-000.14,0000.26,17.1,23.3,00.8,00.5,0650.0,31.0
2021-02-14T16:30:00Z,00000200,01000000,-000.06,0000.38,-000.12,0000.19,0000.08,0000.04,0000.14,0000.31,-000.04,17.1,23.2,00.7,00.5,0650.0,31.0
2021-02-14T16:31:00Z,00000200,01000000,-000.11,0000.26,0000.15,-000.16,0000.06,0000.06,-000.22,-000.00,-000.03,17.1,23.2,00.8,00.6,0649.9,31.0
2021-02-14T16:32:00Z,00000200,01000000,0000.16,0000.21,0000.02,-000.43,-000.12,0000.21,0000.46,0000.16,0000.08,17.1,23.2,00.8,00.5,0650.0,31.0
2021-02-14T16:33:00Z,00000200,01000000,-000.40,0000.41,0000.05,-000.19,0000.02,0000.28,0000.02,-000.08,-000.29,17.0,23.2,00.8,00.6,0649.9,31.0
2021-02-14T16:34:00Z,00000200,01000000,-000.33,0000.37,0000.34,-000.55,0000.06,0000.44,0000.11,-000.36,0000.16,17.0,23.2,00.8,00.6,0649.9,31.0
2021-02-14T16:35:00Z,00000200,01000000,0000.32,0000.27,-000.05,0000.59,0000.11,0000.04,0000.14,0000.59,0000.43,17.0,23.2,00.8,00.6,0649.9,31.0
2021-02-14T16:36:00Z,00000200,01000000,0000.40,0000.28,-000.12,-000.27,0000.06,0000.18,0000.31,0000.06,-000.01,17.1,23.2,00.8,00.6,0649.9,31.0
2021-02-14T16:37:00Z,00000200,01000000,-000.47,0000.04,0000.07,0000.64,-000.05,-000.01,0000.17,0000.45,0000.31,17.2,23.2,00.8,00.5,0649.9,31.0
2021-02-14T16:38:00Z,00000200,01000000,0000.38,0000.29,-000.09,-000.31,0000.02,0000.18,-000.37,0000.13,0000.23,17.3,23.3,00.7,00.5,0649.9,31.0
2021-02-14T16:39:00Z,00000200,01000000,-000.27,0000.40,0000.27,-000.42,-000.03,0000.16,0000.23,-000.26,-000.06,17.4,23.3,00.7,00.5,0650.0,31.1
2021-02-14T16:40:00Z,00000200,01000000,0000.09,0000.27,0000.14,-000.48,0000.32,-000.14,-000.02,-000.06,-000.09,17.5,23.4,00.7,00.5,0649.9,31.1
2021-02-14T16:41:00Z,00000200,01000000,0000.02,-000.11,0000.20,-000.10,0000.03,0000.33,0000.24,0000.28,0000.00,17.6,23.4,00.7,00.5,0649.9,31.1
2021-02-14T16:42:00Z,00000200,01000000,0000.08,-000.10,0000.13,-000.20,0000.01,0000.17,-000.12,0000.11,-000.10,17.6,23.4,00.7,00.5,0649.8,31.1
2021-02-14T16:43:00Z,00000200,01000000,0000.25,0000.22,-000.09,0000.56,0000.28,0000.05,0000.44,0000.01,-000.02,17.6,23.4,00.7,00.5,0649.8,31.1
2021-02-14T16:44:00Z,00000200,01000000,-000.58,0000.12,0000.58,0000.20,0000.03,0000.11,-000.25,0000.14,0000.15,17.5,23.4,00.7,00.5,0649.9,31.0
2021-02-14T16:45:00Z,00000200,01000000,-000.26,0000.52,0000.16,-000.09,-000.16,-000.14,-000.19,-000.22,0000.12,17.5,23.4,00.7,00.5,0649.9,31.0
2021-02-14T16:46:00Z,00000200,01000000,-000.45,0000.44,-000.04,-000.40,0000.19,-000.03,0000.17,0000.04,-000.04,17.5,23.4,00.7,00.5,0649.8,31.0
2021-02-14T16:47:00Z,00000200,01000000,0000.32,0000.14,0000.29,0000.17,0000.03,0000.14,0000.12,0000.20,0000.10,17.5,23.4,00.6,00.4,0649.8,31.0
2021-02-14T16:48:00Z,00000200,01000000,-000.17,0000.21,0000.19,-000.21,0000.01,0000.08,-000.09,-000.01,0000.13,17.4,23.4,00.7,00.5,0649.9,31.0
2021-02-14T16:49:00Z,00000200,01000000,0000.26,0000.29,0000.35,-000.31,-000.03,-000.01,-000.07,0000.07,-000.11,17.4,23.4,00.6,00.4,0649.9,31.0
2021-02-14T16:50:00Z,00000200,01000000,-000.64,0000.52,0000.13,0000.46,-000.09,0000.05,0000.62,-000.16,-000.02,17.4,23.4,00.6,00.4,0649.9,31.0
2021-02-14T16:51:00Z,00000200,01000000,0000.56,0000.19,0000.19,-000.17,-000.09,0000.04,0000.05,0000.57,0000.57,17.5,23.4,00.5,00.3,0649.8,31.0
2021-02-14T16:52:00Z,00000200,01000000,0000.03,0000.35,0000.15,0000.19,0000.18,-000.03,-000.21,-000.25,-000.06,17.6,23.4,00.5,00.4,0649.8,31.1
2021-02-14T16:53:00Z,00000200,01000000,-001.26,-000.12,0000.04,0000.21,-000.07,0000.05,0000.06,0000.10,-000.27,17.7,23.5,00.4,00.3,0649.8,31.1
2021-02-14T16:54:00Z,00000200,01000000,0000.39,0000.11,-000.12,-000.09,0000.00,0000.14,0000.00,-000.11,0000.01,17.7,23.5,00.4,00.3,0649.8,31.1
2021-02-14T16:55:00Z,00000200,01000000,0000.91,0000.19,0000.16,0000.24,0000.06,-000.02,-000.43,-000.20,0000.30,17.7,23.5,00.4,00.3,0649.8,31.1
2021-02-14T16:56:00Z,00000200,01000000,0000.05,0000.41,0000.39,-000.31,-000.00,0000.34,0000.39,0000.27,-000.23,17.7,23.5,00.4,00.3,0649.8,31.0
2021-02-14T16:57:00Z,00000200,41000000,,,,,,,0000.51,0000.35,0000.25,17.7,23.6,00.3,00.2,0649.8,31.1
2021-02-14T16:58:00Z,00000200,61000000,,,,,,,-000.50,-000.37,-000.35,17.4,23.6,00.4,00.3,0648.8,31.1
2021-02-14T16:59:00Z,00000200,21000000,,,,,,,-000.13,-000.28,-000.17,17.4,23.7,00.3,00.2,0648.8,31.1
